Regional Weather Roundup
Issued by NWS

Home | Current Version | Previous Version | Text Only | Print | Product List | Glossary On
Versions: 1 2 3 4 5 6 7 8 9 10 11 12 13 14 15 16 17 18 19 20 21 22 23 24 25 26 27 28
000
ASUS44 KJAN 202310
RWRMS

MISSISSIPPI HOURLY WEATHER ROUNDUP
NATIONAL WEATHER SERVICE JACKSON MS
500 PM CST MON NOV 20 2017

NOTE: "FAIR: INDICATES FEW OR NO CLOUDS BELOW 12,000 FEET WITH NO
SIGNIFICANT WEATHER AND/OR OBSTRUCTIONS TO VISIBILITY.

MSZ001>002-007>008-010>013-018>021-025>028-034>036-210000-
NORTHWEST MISSISSIPPI

CITY           SKY/WX    TMP DP  RH WIND       PRES   REMARKS
BATESVILLE     FAIR      48  31  52 CALM      30.12S
CLARKSDALE       N/A     50  30  46 SE5       30.11F
CLEVELAND      FAIR      51  29  42 S3        30.11S
GREENWOOD      CLOUDY    50  29  44 S5        30.11S
GREENVILLE     CLEAR     49  28  44 S6        30.11S
OLIVE BRANCH   MOCLDY   N/A N/A N/A CALM      30.06S
OXFORD         FAIR      46  30  53 S3        30.12R
TUNICA           N/A    N/A N/A N/A S7        30.11S
WINONA         FAIR      49  35  58 CALM      30.11F
$$

MSZ003>006-009-014>017-022>024-029>033-037>039-210000-
NORTHEAST MISSISSIPPI

CITY           SKY/WX    TMP DP  RH WIND       PRES   REMARKS
ABERDEEN       FAIR      48  37  66 CALM      30.12F
COLUMBUS AFB   CLOUDY    48  33  54 S5        30.11F
CORINTH        FAIR      50  27  40 CALM      30.10S
GOLDN TRIANGLE CLOUDY    49  27  42 S6        30.13S
STARKVILLE     FAIR      46  32  57 CALM      30.13S
TUPELO         CLOUDY    48  28  46 S5        30.10F
$$

MSZ040-058-210000-
CENTRAL MISSISSIPPI

CITY           SKY/WX    TMP DP  RH WIND       PRES   REMARKS
JACKSON INTL   MOCLDY    51  37  58 CALM      30.11F
JACKSON HAWKNS CLOUDY    52  32  46 CALM      30.12S
MADISON        FAIR      46  32  57 CALM      30.11S
MERIDIAN KEY   PTCLDY    49  37  63 S3        30.12F
MERIDIAN NAS   CLOUDY    49  31  49 CALM      30.13F
RAYMOND        FAIR      50  37  62 CALM      30.11S
VICKSBURG VKS  CLEAR     50  30  46 CALM      30.13S
$$

MSZ059>079-210000-
SOUTH MISSISSIPPI

CITY           SKY/WX    TMP DP  RH WIND       PRES   REMARKS
COLUMBIA       DRIZZLE   48  43  81 CALM      30.17R
HATTIESBURG    CLEAR     51  40  65 SE5       30.13S
LAUREL         FAIR      52  32  46 CALM      30.13S
MCCOMB         CLOUDY    51  39  63 CALM      30.12S
NATCHEZ        CLOUDY    53  36  52 CALM      30.12S
PINE BELT      CLOUDY    47  40  76 CALM      30.14R
$$

MSZ080>082-210000-
COASTAL MISSISSIPPI

CITY           SKY/WX    TMP DP  RH WIND       PRES   REMARKS
BAY ST LOUIS   PTCLDY    52  45  76 CALM      30.14
BILOXI         CLEAR     53  40  62 CALM      30.13S
PASCAGOULA     CLEAR     50  45  83 CALM      30.13F
GULFPORT       CLEAR     52  44  74 S3        30.13F
$$

LAZ007>009-015>016-023>026-210000-
NORTHEAST LOUISIANA

CITY           SKY/WX    TMP DP  RH WIND       PRES   REMARKS
BASTROP        FAIR      50  33  53 CALM      30.12S
TALLULAH/VBURG CLEAR     47  35  63 CALM      30.12S
VIDALIA          N/A    N/A N/A N/A MISG      30.11F
$$




USA.gov is the U.S. government's official web portal to all federal, state and local government web resources and services.